Weather in Otrozhny

Russia / Chukotka Autonomous Okrug     65°07′20″N   172°47′50″E
temp.,
°C
wind,
m/s
gust,
m/s
humid.,
%
clouds,
%
prec.,
mm/h
press.,
hPa
HPBL,
m
17 october, sun
sun1700:00−16nne1197100 0.1 101338
03:00−14nne239691 0.3 101294
06:00−16nnw119788 0.4 101117
09:00−15n239498 0.0 101272
12:00−12nnw239299 0.1 1013124
15:00−12nw229496 0.1 101346
18:00−16nnw119695 0.1 101610
21:00−16nw1196100 0.0 101710
18 october, mon
mon1800:00−15nne1194100 0.0 101815
03:00−13ene1192100 0.0 101722
06:00−13e2294100 0.0 101639
09:00−11e41095100 0.3 1015332
12:00−9ese4995100 1.5 1013343
15:00−8ese3895100 1.3 1010323
18:00−8ese3996100 2.1 1007306
21:00−6ese61295100 1.6 1003444
19 october, tue
tue1900:00−4e81496100 4.8 998588
03:00−2e111796100 1.5 992857
06:00−1e111897100 6.6 9871071
09:00−1e132096100 5.9 9831118
12:00−1e111896100 9.2 983962
15:00−4ene111894100 1.4 983895
18:00−5ne91694100 3.9 985976
21:00−6n41196100 2.3 986652
20 october, wed
wed2000:00−6n41094100 3.6 987487
03:00−7nnw41096100 0.8 988444
06:00−7nw4896100 1.9 989404
09:00−8wnw4896100 1.3 991428
12:00−8wnw5796100 2.1 992350
15:00−8wnw6895100 0.7 994317
18:00−9wnw469698 1.2 996168
21:00−9wnw479395 0.2 997134
21 october, thu
thu2100:00−10wnw589499 0.4 998203
03:00−10wnw599497 0.3 999231
06:00−10wnw599395 0.5 999231
09:00−10w599399 0.1 999251
12:00−9wnw599599 0.4 999425
15:00−9wnw5995100 0.5 998398
18:00−9wnw4896100 1.1 998316
21:00−10wnw489699 0.9 997299